Miscellaneous Local Product
Issued by NWS Hastings, NE

Home | Current Version | Previous Version | Text Only | Print | Product List | Glossary Off
Versions: 1 2 3 4 5 6 7 8 9 10 11 12 13 14 15 16 17 18 19 20 21 22 23 24 25 26 27 28 29 30 31 32 33 34 35 36 37 38 39 40 41 42 43 44 45 46 47 48 49 50

000
AXUS43 KGID 060602
MISGRI

GID CWA HOURLY WEATHER ROUNDUP
NATIONAL WEATHER SERVICE HASTINGS NE
100 AM CDT WED MAY 06 2015

NOTE: "FAIR" INDICATES FEW OR NO CLOUDS BELOW 12,000 FEET WITH NO
SIGNIFICANT WEATHER AND/OR OBSTRUCTIONS TO VISIBILITY.

...SOUTH CENTRAL NEBRASKA...

CITY           SKY/WX    TMP DP  RH WIND       PRES   REMARKS
GRAND ISLAND   CLOUDY    60  56  86 SE12      29.90F
HASTINGS       LGT RAIN  61  57  87 SE15G22   29.89F
KEARNEY        CLOUDY    59  55  88 SE16      29.87F
ORD            LGT RAIN  58  55  90 SE8       29.87F
YORK           CLOUDY    63  59  88 SE12      29.93F
AURORA         CLOUDY    62  58  87 SE12      29.91F
LEXINGTON      CLOUDY    58  57  96 SE18G24   29.83F
HOLDREGE       CLOUDY    59  57  93 SE18G26   29.85F
HEBRON         CLOUDY    63  55  76 SE9       29.93F

...NEBRASKA PANHANDLE...

CITY           SKY/WX    TMP DP  RH WIND       PRES   REMARKS
CHADRON        CLOUDY    56  50  80 SE6       29.80F
ALLIANCE       NOT AVBL
SCOTTSBLUFF    CLOUDY    53  50  90 SE14      29.77F
SIDNEY         LGT RAIN  51  50  96 E16       29.76F FOG

...WESTERN AND NORTH CENTRAL NEBRASKA...

CITY           SKY/WX    TMP DP  RH WIND       PRES   REMARKS
VALENTINE      CLOUDY    57  55  93 E6        29.85F
AINSWORTH      CLOUDY    57  54  88 SE10      29.87F
ONEILL         CLOUDY    64  56  77 SE13      29.91F
BROKEN BOW     LGT RAIN  58  55  90 SE16      29.85F FOG
IMPERIAL       CLOUDY    56  55  97 SE13      29.75F
NORTH PLATTE   LGT RAIN  55  54  96 E14       29.79F
MCCOOK         MOCLDY    60  57  89 SE18G28   29.77F

...EASTERN NEBRASKA...

CITY           SKY/WX    TMP DP  RH WIND       PRES   REMARKS
NORFOLK        LGT RAIN  63  60  90 S12       29.94F
SO SIOUX CITY  LGT RAIN  66  58  75 SE13      29.96S
TEKAMAH        CLOUDY    67  58  72 SE14      29.96S
COLUMBUS       CLOUDY    63  55  77 SE6       29.95F
ALBION         DRIZZLE   60  58  93 SE10      29.93F
OMAHA EPPLEY   CLOUDY    67  58  72 SE15      29.98S
MILLARD        CLOUDY    67  58  73 SE9       29.98S
LINCOLN        CLOUDY    65  60  84 SE15      29.96F
NEBRASKA CITY  MOCLDY    64  58  79 S9        30.00R
BEATRICE       CLOUDY    64  61  87 SE14G21   29.96F
FALLS CITY     HVY RAIN  64  62  93 SE17      30.01R

...NORTHERN KANSAS...

CITY           SKY/WX    TMP DP  RH WIND       PRES   REMARKS
GOODLAND       MOCLDY    52  51  97 S18       29.76S
HILL CITY      CLOUDY    62  59  90 SE14      29.82F
NORTON         CLOUDY    59  55  88 SE15G22   29.81F
PHILLIPSBURG   CLOUDY    64  64 100 SE12G18   29.84F
SMITH CENTER   CLOUDY    61  57  88 SE16      29.87F
HAYS           CLOUDY    61  55  82 SE15      29.84F
RUSSELL        CLOUDY    62  60  93 SE18      29.83F
CONCORDIA      CLOUDY    64  58  80 SE20G26   29.91F
SALINA         LGT RAIN  65  61  87 SE18G25   29.89F
TOPEKA         CLOUDY    65  63  93 E6        29.99F



USA.gov is the U.S. government's official web portal to all federal, state and local government web resources and services.